TimeEST,TemperatureF,Dew PointF,Humidity,Sea Level PressureIn,VisibilityMPH,Wind Direction,Wind SpeedMPH,Gust SpeedMPH,PrecipitationIn,Events,Conditions,WindDirDegrees,DateUTC
12:51 AM,28.9,14.0,54,29.77,10.0,NW,20.7,26.5,N/A,,Partly Cloudy,310,2013-03-04 05:51:00
1:51 AM,28.0,14.0,56,29.77,10.0,NW,17.3,-,N/A,,Partly Cloudy,320,2013-03-04 06:51:00
2:51 AM,28.0,12.9,53,29.77,10.0,NW,20.7,28.8,N/A,,Partly Cloudy,320,2013-03-04 07:51:00
3:51 AM,28.0,14.0,56,29.78,10.0,NW,18.4,21.9,N/A,,Partly Cloudy,310,2013-03-04 08:51:00
4:51 AM,28.0,16.0,61,29.79,10.0,WNW,16.1,20.7,N/A,,Clear,300,2013-03-04 09:51:00
5:51 AM,28.9,17.1,61,29.79,10.0,WNW,16.1,21.9,N/A,,Scattered Clouds,300,2013-03-04 10:51:00
6:51 AM,30.0,17.1,59,29.81,10.0,NW,15.0,-,N/A,,Mostly Cloudy,310,2013-03-04 11:51:00
7:51 AM,30.9,18.0,59,29.82,10.0,WNW,20.7,27.6,N/A,,Scattered Clouds,300,2013-03-04 12:51:00
8:51 AM,33.1,17.1,52,29.80,10.0,NW,21.9,31.1,N/A,,Scattered Clouds,320,2013-03-04 13:51:00
9:51 AM,36.0,18.0,48,29.81,10.0,NW,17.3,-,N/A,,Scattered Clouds,310,2013-03-04 14:51:00
10:51 AM,37.9,17.1,43,29.81,10.0,NW,19.6,25.3,N/A,,Scattered Clouds,320,2013-03-04 15:51:00
11:51 AM,39.9,17.1,40,29.80,10.0,WNW,19.6,26.5,N/A,,Scattered Clouds,290,2013-03-04 16:51:00
12:51 PM,43.0,18.0,37,29.78,10.0,NW,21.9,29.9,N/A,,Scattered Clouds,320,2013-03-04 17:51:00
1:51 PM,43.0,17.1,35,29.76,10.0,WNW,16.1,23.0,N/A,,Scattered Clouds,300,2013-03-04 18:51:00
2:51 PM,42.1,17.1,37,29.77,10.0,WNW,21.9,27.6,N/A,,Scattered Clouds,290,2013-03-04 19:51:00
3:51 PM,42.1,17.1,37,29.78,10.0,NW,20.7,27.6,N/A,,Scattered Clouds,320,2013-03-04 20:51:00
4:51 PM,39.9,17.1,40,29.80,10.0,NW,23.0,26.5,N/A,,Scattered Clouds,320,2013-03-04 21:51:00
5:51 PM,37.9,16.0,41,29.82,10.0,NW,20.7,28.8,N/A,,Scattered Clouds,320,2013-03-04 22:51:00
6:51 PM,37.0,16.0,42,29.84,10.0,NW,17.3,27.6,N/A,,Partly Cloudy,310,2013-03-04 23:51:00
7:51 PM,36.0,17.1,46,29.86,10.0,NW,21.9,32.2,N/A,,Partly Cloudy,320,2013-03-05 00:51:00
8:51 PM,35.1,17.1,48,29.87,10.0,NW,21.9,29.9,N/A,,Partly Cloudy,310,2013-03-05 01:51:00
9:51 PM,34.0,17.1,50,29.89,10.0,NNW,24.2,33.4,N/A,,Partly Cloudy,330,2013-03-05 02:51:00
10:51 PM,33.1,17.1,52,29.91,10.0,NW,21.9,27.6,N/A,,Partly Cloudy,320,2013-03-05 03:51:00
11:51 PM,33.1,18.0,54,29.91,10.0,NW,21.9,27.6,N/A,,Scattered Clouds,310,2013-03-05 04:51:00